Regional Weather Roundup
Issued by NWS Sterling, VA

Home | Current Version | Previous Version | Text Only | Print | Product List | Glossary On
Versions: 1 2 3 4 5 6 7 8 9 10 11 12 13 14 15 16 17 18 19 20 21 22 23 24 25 26 27 28 29 30 31 32 33 34 35 36 37 38 39 40 41 42 43 44 45 46 47 48 49 50
000
ASUS41 KLWX 041810
RWRLWX

REGIONAL WEATHER ROUNDUP
NATIONAL WEATHER SERVICE BALTIMORE MD/WASHINGTON DC
200 PM EDT SAT JUL 04 2015

Note: "FAIR" indicates few or no clouds below 12,000 feet
with no significant weather and/or obstructions to visibility.
 TC=TEMPERATURE CELSIUS

 * =Non NWS site. Station does not report precipitation (e.g. rain,
    snow, etc.), thunder, or fog.

DCZ001-MDZ009-015-VAZ040>042-051-053>054-041900-
WASHINGTON METRO

CITY           SKY/WX    TMP DP  RH WIND       PRES   REMARKS
WASHINGTON NAT CLOUDY    80  70  71 SE3       29.91F
DULLES         PTSUNNY   79  69  71 S6        29.91S
ANDREWS AFB    CLOUDY    77  73  88 VRB1      29.91F
FT BELVOIR     CLOUDY    79  70  73 SW5       29.91S
LEESBURG*      LGT RAIN  79  72  78 S10       29.92S
MANASSAS*      PTSUNNY   82  72  69 SW8         N/A
GAITHERSBURG*  CLOUDY    73  68  83 E3        29.96S

$$

MDZ006>007-011-014-041900-
BALTIMORE METRO

CITY           SKY/WX    TMP DP  RH WIND       PRES   REMARKS
BWI AIRPORT    CLOUDY    74  68  81 E6        29.92S
MD SCIENCE CTR   N/A     74  69  85 MISG      29.94F
MARTIN STATE   DRIZZLE   72  72 100 CALM      29.94R
ANNAPOLIS      CLOUDY    76  68  76 E5        29.92R
FORT MEADE*    CLOUDY    73  68  83 CALM      29.94S

$$

MDZ012-015-019>023-041900-
MARYLAND EASTERN SHORE

CITY           SKY/WX    TMP DP  RH WIND       PRES   REMARKS
OCEAN CITY     MOSUNNY   78  69  73 NE13      29.91R
SALISBURY      LGT RAIN  78  71  79 NE5       29.90S
BAY BRIDGE AP*   N/A     75  68  78 NE3       29.92R

$$

MDZ017>025-041900-
SOUTHERN MARYLAND

CITY           SKY/WX    TMP DP  RH WIND       PRES   REMARKS
PATUXENT RIVER PTSUNNY   78  70  76 NE8       29.90S
ST INIGOES     PTSUNNY   81  72  74 N6        29.90R
LEONARDTOWN*   PTSUNNY   79  68  69 CALM      29.92S

$$

MDZ003>005-041900-
NORTH CENTRAL MARYLAND

CITY           SKY/WX    TMP DP  RH WIND       PRES   REMARKS
FREDERICK*     CLOUDY    73  72  94 E5        29.95S FOG
HAGERSTOWN APT CLOUDY    73  67  81 N6        29.93S HAZE
WESTMINSTER*   DRIZZLE   70  66  88 E5        29.94S

$$

MDZ501>502-041900-
WESTERN MARYLAND

CITY           SKY/WX    TMP DP  RH WIND       PRES   REMARKS
OAKLAND*       PTSUNNY   66 N/A N/A W7        30.04S
CUMBERLAND*    MOSUNNY   81  70  69 N7        29.96S

$$

VAZ025>031-041900-
SHENANDOAH VALLEY

CITY           SKY/WX    TMP DP  RH WIND       PRES   REMARKS
WINCHESTER*    PTSUNNY   82  70  65 W3        29.91S
FRONT ROYAL*   MOCLDY    79  70  73 W5        29.91S
LURAY*         LGT RAIN  77  72  83 S3        29.93S
NEW MARKET*    FAIR      79  66  65 CALM      29.91S
STAUNTON*      PTSUNNY   83  67  58 SW9       29.96S
WAYNESBORO*    MOCLDY    79  67  66 NW8       29.96S

$$

WVZ021-048>050-054>055-041900-
EASTERN WEST VIRGINIA PANHANDLE

CITY           SKY/WX    TMP DP  RH WIND       PRES   REMARKS
MARTINSBURG    LGT RAIN  74  70  87 CALM      29.92S FOG
PETERSBURG*    CLOUDY    79  61  54 CALM      29.95R

$$

VAZ036>039-050-041900-
CENTRAL FOOTHILLS

CITY           SKY/WX    TMP DP  RH WIND       PRES   REMARKS
CHARLOTTESVILL MOSUNNY   82  69  64 VRB3      29.91F
CULPEPER*      MOSUNNY   81  70  69 SW5       29.91F
ORANGE*        CLOUDY    82  70  65 S6        29.93S
GORDONSVILLE*  MOCLDY    81  70  69 SW5       29.91F
WARRENTON*     PTSUNNY   83  73  71 W6        29.90F

$$

VAZ055>057-041900-
NORTH AND CENTRAL PIEDMONT

CITY           SKY/WX    TMP DP  RH WIND       PRES   REMARKS
FREDERICKSBRG* PTSUNNY   83  71  65 SW7       29.91S
STAFFORD*      CLOUDY    78  69  74 CALM      29.95S

$$

NCZ024-NYZ072-PAZ021-071-VAZ022-071-041900-
OTHER REGIONAL OBSERVATIONS

CITY           SKY/WX    TMP DP  RH WIND       PRES   REMARKS
NEW YORK CITY  LGT RAIN  70  61  73 MISG      29.99S
PHILADELPHIA   LGT RAIN  74  65  73 NE9       29.93F
PITTSBURGH     MOSUNNY   78  61  55 NW10      29.97R
ROANOKE        CLOUDY    81  65  58 W12       29.99R
RICHMOND       PTSUNNY   83  70  64 SW6       29.92S
RALEIGH        PTSUNNY   81  68  64 SW15      29.99S THUNDER

$$

ANZ530>537-041900-
MARINE OBSERVATIONS

STATION/POSITION TIME  TEMP    WIND        PRES
                       AIR SEA DIR/SP/G
                 (UTC) (F)     (DEG/KT/KT) (MB)
THOMAS PT LIGHT  1800   73 76  360/  7/  8 1013.5R
BALT KEY BRIDGE  1700   72      80/  3/  4 1013.1R
COVE POINT       1700   75      20/  7/  8 1013.3S
LEWISETTA        1700   78 80   10/  5/  9 1012.3S
SOLOMONS ISLAND  1700      79                N/A
PINEY POINT      1700          340/  7/  8   N/A

$$



USA.gov is the U.S. government's official web portal to all federal, state and local government web resources and services.